Location: Putah Creek Observatory
(38.7021°N, 122.3865°W)
Time: 12:33:12
(UTC-07:00)

Daily predictions for brighter satellites

Satellite Brightness Start Highest point End
(mag) Time Altitude Azimuth Time Altitude Azimuth Time Altitude Azimuth
Cosmos 2233 Rocket 4.1 20:46:18 10° S 20:52:16 57° E 20:58:20 10° NNE
deb Kosmos-1763 4.0 20:50:46 10° SSW 20:54:27 84° ESE 20:58:09 10° NNE
ERS-2 2.1 21:00:54 10° SSE 21:04:35 82° ENE 21:08:17 10° NNW
USA 234 3.5 20:58:53 10° NE 21:05:11 47° SE 21:11:27 10° SSW
NOSS 3-2 (C) 4.1 21:06:23 10° SW 21:12:11 61° NW 21:18:39 10° NNE
Cosmos 1666 2.7 21:09:10 10° N 21:13:04 84° E 21:16:56 10° S
Cosmos 2360 Rocket 3.0 21:16:04 10° N 21:21:16 37° ENE 21:25:42 14° ESE
Aureole 2 Rocket 2.9 21:20:31 10° N 21:23:07 30° ENE 21:24:40 18° ESE
Cosmos 2219 Rocket 4.3 21:21:03 10° NNE 21:23:14 12° NE 21:25:25 10° ENE
Cosmos 1980 Rocket 4.1 21:19:04 10° NW 21:23:43 26° WSW 21:28:21 10° SSW
CENTAUR R/B 2.4 21:18:26 10° SSW 21:24:14 76° ESE 21:30:57 10° NE
Cosmos 1898 Rocket 3.8 21:21:01 10° NNW 21:26:18 70° WSW 21:31:35 10° S
Cosmos 1814 Rocket 4.1 21:22:06 10° SSW 21:27:21 87° WNW 21:32:42 10° NNE
Cosmos 1975 3.6 21:23:30 10° NNW 21:27:25 52° W 21:31:18 10° S
Cosmos 1743 3.2 21:27:43 10° NNW 21:31:30 60° W 21:35:14 10° S
Resurs 1-3 4.4 21:27:28 10° S 21:31:43 50° W 21:35:59 10° NNW
Iridium 2 3.6 21:28:07 10° S 21:31:56 82° E 21:35:47 10° N
GPS 2-05 Rocket1 3.5 21:29:47 10° SW 21:32:46 31° SSE 21:34:22 20° ESE
Cosmos 990 Rocket 4.1 21:30:03 10° NNW 21:35:18 81° WSW 21:40:12 12° SSE
Cosmos 1455 Rocket 3.3 21:31:05 10° N 21:35:23 53° E 21:38:38 17° SSE
Atlas Centaur 2 3.3 21:34:51 10° SW 21:36:38 13° SSW 21:38:08 11° S
Meteor 2-9 Rocket 4.1 21:32:32 10° N 21:37:54 73° E 21:42:48 13° SSE
H-2A R/B 2.4 21:38:23 18° SE 21:41:47 44° ENE 21:46:35 10° N
Cosmos 2034 Rocket 4.3 21:39:40 13° SSE 21:44:44 44° E 21:50:32 10° NNE
Cosmos 1975 Rocket 4.1 21:41:28 10° SSW 21:45:37 45° W 21:49:47 10° N
Cosmos 1464 Rocket 4.1 21:40:25 10° S 21:46:42 66° E 21:53:01 10° NNE
Cosmos 1242 Rocket 4.2 21:47:59 10° NNW 21:51:15 32° W 21:54:28 10° SSW
Cosmos 2333 Rocket 4.0 21:50:30 10° N 21:54:31 19° NE 21:57:46 13° E
Cosmos 1515 3.6 21:54:13 19° S 21:56:54 71° E 22:00:43 10° NNE
Shenzhou-11 Module 1.9 21:53:57 10° WNW 21:56:55 70° SSW 21:57:42 44° SE
COSMOS 2428 3.8 21:52:44 10° N 21:57:43 31° ENE 22:00:42 19° ESE
Meteor 1-23 Rocket 4.1 21:54:52 11° S 22:00:14 71° E 22:05:47 10° NNE
Helios 1B rocket 3.8 21:57:35 10° NE 22:00:50 22° E 22:00:55 22° E
Terra 3.6 22:00:26 15° E 22:02:05 17° ENE 22:05:09 10° NNE
Cosmos 1833 4.5 21:57:20 10° SSW 22:03:02 71° WNW 22:08:45 10° NNE
Cosmos 1544 Rocket 3.7 21:58:37 10° NNW 22:03:03 73° W 22:06:12 19° S
Cosmos 1891 Rocket 4.5 21:58:15 10° S 22:04:27 81° E 22:10:50 10° N
ARGOS 3.1 22:00:36 19° SSE 22:04:33 86° WSW 22:10:00 10° NNW
Cosmos 540 Rocket 3.4 21:59:48 10° SSW 22:04:58 89° ESE 22:10:11 10° NNE
Meteor 2-20 Rocket 4.4 21:58:58 10° N 22:05:08 89° W 22:09:52 18° S
Tiangong 2 2.3 22:02:37 10° WNW 22:05:36 38° N 22:07:27 19° ENE
Meteor 2-4 Rocket 4.3 22:01:29 10° SSW 22:06:50 57° WNW 22:12:21 10° N
Lacrosse 5 rocket 1.4 22:02:51 10° NW 22:07:10 71° NE 22:08:48 35° ESE
SPOT 5 3.5 22:05:36 27° ESE 22:07:14 36° ENE 22:11:26 10° N
DMSP B5D2-2 4.3 22:02:50 10° NNE 22:07:57 49° E 22:10:39 26° SSE
Cosmos 2297 Rocket 4.2 22:10:45 11° E 22:10:45 11° E 22:11:16 10° E
SJ 16-02 1.4 22:06:31 10° N 22:10:56 62° ENE 22:12:38 35° SE
Cosmos 2227 Rocket 4.0 22:14:14 14° E 22:14:14 14° E 22:16:15 10° ENE
Cosmos 2322 Rocket 3.6 22:11:56 10° NW 22:16:49 31° WSW 22:21:30 11° SSW
Cosmos 1536 Rocket 3.8 22:15:30 16° SSW 22:19:01 69° W 22:23:29 10° N
Cosmos 2322 3.7 22:13:38 10° NNW 22:19:24 81° ENE 22:22:10 32° SSE
Cosmos 2237 Rocket 4.1 22:17:18 10° N 22:21:02 18° NE 22:23:44 13° E
Okean 1-7 Rocket 4.4 22:25:45 32° E 22:26:03 33° E 22:30:07 10° NNE
Cosmos 1544 4.4 22:22:58 10° NNE 22:25:57 26° ENE 22:25:57 26° ENE
SL-16 R/B 4.1 22:23:18 10° NW 22:27:43 24° WSW 22:32:07 10° SSW
Cosmos 1066 Rocket 4.2 22:26:49 36° SSE 22:28:46 54° E 22:34:04 10° NNE
MetOp-B 4.5 22:25:37 24° S 22:28:52 62° WSW 22:34:11 10° NNW
Resurs 01 Rocket 4.3 22:27:21 10° WSW 22:29:11 12° W 22:31:02 10° WNW
Cosmos 372 Rocket 3.9 22:31:03 10° NNW 22:36:11 85° WSW 22:37:57 42° SSE
DELTA 2 R/B (1) 3.5 22:40:25 10° WSW 22:45:52 59° SSE 22:48:25 31° E
Cosmos 2219 3.1 22:43:57 32° S 22:46:42 74° ESE 22:52:27 10° NNE
USA 234 4.2 22:41:53 10° NE 22:48:09 50° NW 22:54:25 10° WSW
ERS-1 Rocket 3.6 22:47:39 29° SSW 22:49:50 49° W 22:54:43 10° NNW
CZ-4C R/B 3.0 22:42:35 10° NNW 22:49:54 74° NE 22:53:30 36° SE
CARTOSAT-1 3.7 22:50:13 55° E 22:50:33 57° ENE 22:54:48 10° N
Cosmos 1092 Rocket 4.0 22:47:12 10° N 22:53:35 77° E 22:55:47 43° SSE
Nadezhda 4 Rocket 4.1 22:47:39 10° N 22:53:57 72° W 22:56:55 33° S
Cosmos 1025 Rocket 3.4 22:53:57 40° SW 22:55:18 60° W 22:59:39 10° N
Meteor 1-22 Rocket 4.2 22:54:24 10° N 22:59:38 54° ENE 23:00:22 49° ESE
CZ-2C R/B 3.3 22:55:12 10° NNE 23:00:24 38° E 23:00:28 38° E
NOSS 0 Rocket 4.4 22:54:48 10° NNW 23:00:52 50° ENE 23:02:39 39° ESE
BREEZE M DEB (TANK) 3.6 22:55:25 10° WNW 23:01:01 30° WSW 23:01:08 30° SW
Cosmos 2360 Rocket 3.6 23:00:18 10° NW 23:05:05 29° WSW 23:07:29 21° SW
Meteor 1-29 3.5 23:01:55 10° N 23:04:45 55° N 23:04:45 55° N
CZ-3 Stage 3 4.2 23:06:49 39° S 23:08:06 43° SSE 23:29:07 10° E
Cosmos 2219 Rocket 2.1 23:02:29 10° NNW 23:08:06 80° ENE 23:09:09 60° SE
Cosmos 1538 Rocket 4.2 23:09:12 51° E 23:09:12 51° E 23:14:04 10° NNE
Cosmos 1606 Rocket 3.5 23:06:03 10° N 23:10:26 73° ENE 23:10:26 73° ENE
Cosmos 2333 4.5 23:07:31 10° NNW 23:13:06 60° WSW 23:14:23 48° SSW
CZ-2C R/B 3.2 23:13:05 58° ESE 23:13:56 68° ENE 23:19:32 10° N
Helios 1A 4.1 23:14:14 33° WSW 23:14:44 34° W 23:18:34 10° NNW
SPOT 1/Viking Rocket 4.3 23:16:27 37° SW 23:17:47 45° W 23:22:43 10° NNW
Cosmos 1842 4.3 23:21:07 38° NE 23:21:07 38° NE 23:23:44 10° NNE
Cosmos 2026 Rocket 3.8 23:14:23 10° N 23:20:34 79° E 23:21:43 60° SSE
Landsat 7 4.3 23:19:57 45° SW 23:20:37 49° W 23:25:14 10° NNW
H-2A R/B 4.0 23:19:00 14° SW 23:21:26 19° W 23:24:57 10° NW
Cosmos 1805 4.3 23:17:49 10° N 23:20:41 40° NE 23:20:41 40° NE
Cosmos 2279 Rocket 3.9 23:22:26 58° SE 23:23:25 66° E 23:29:33 10° NNE
YAOGAN 11 4.3 23:34:09 67° WNW 23:34:09 67° WNW 23:38:26 10° NNW
Cosmos 1655 Rocket 4.0 23:29:09 10° N 23:35:30 68° E 23:36:23 60° SE
Helios 1B rocket 4.2 23:32:35 10° NNW 23:36:05 27° WNW 23:37:15 23° W
Cosmos 2333 Rocket 2.3 23:33:37 10° NNW 23:39:16 64° WSW 23:39:47 61° SW
Terra 2.4 23:39:19 48° WSW 23:39:25 48° W 23:44:02 10° NNW
SL-16 R/B 3.5 23:34:46 10° N 23:39:40 29° ENE 23:40:43 27° ENE
COSMOS 2455 2.7 23:40:11 69° S 23:40:57 84° ESE 23:47:01 10° NNE
COSMOS 2428 3.6 23:36:50 10° NW 23:41:58 36° WSW 23:42:43 35° WSW
Tiangong 2 4.2 23:39:21 10° WNW 23:39:38 12° WNW 23:39:38 12° WNW
Cosmos 773 Rocket 3.9 23:43:59 79° W 23:44:04 80° WNW 23:49:14 10° NNE
Cosmos 1892 Rocket 4.2 23:45:59 49° WNW 23:45:59 49° WNW 23:49:55 10° N
Lacrosse 5 rocket 4.0 23:44:09 10° W 23:44:28 11° W 23:44:28 11° W
Intercosmos 25 4.2 23:46:36 49° NNW 23:46:36 49° NNW 23:49:14 10° N
Cosmos 1980 3.5 23:42:45 10° NNW 23:48:27 89° ENE 23:48:37 85° SSE
SJ 16-02 4.0 23:48:15 10° W 23:48:54 10° W 23:49:32 10° WSW
Cosmos 1428 Rocket 4.3 23:44:20 10° N 23:50:28 79° W 23:51:14 68° SSW
ISS -0.7 23:49:20 10° N 23:50:37 12° NNE 23:51:28 11° NNE
Cosmos 2297 Rocket 2.1 23:52:31 80° SW 23:52:49 85° WNW 23:58:31 10° NNE
Cosmos 2228 3.8 23:48:46 10° NNW 23:52:13 49° NW 23:52:13 49° NW
